Weather in Naykhin

Russia / Khabarovsk Krai     49°16′52″N   136°27′43″E
temp.,
°C
wind,
m/s
gust,
m/s
humid.,
%
clouds,
%
prec.,
mm/h
press.,
hPa
HPBL,
m
25 july, sun
sun2501:00+24s3577100 0.0 100681
04:00+23s3581100 0.0 100670
07:00+24s25821 0.0 1006133
10:00+29ssw3659100 0.0 1006525
13:00+33sw5741100 0.0 10041622
16:00+33wsw5742100 0.0 10041372
19:00+30wsw3660100 0.0 1003131
22:00+26sw2271100 0.0 100420
26 july, mon
mon2601:00+25s2276100 0.3 100421
04:00+23ssw2381100 0.3 100549
07:00+23s2487100 0.5 1005103
10:00+27ssw366934 0.8 1004476
13:00+32sw4644100 0.0 10031240
16:00+32wsw5744100 0.0 1002957
19:00+28nw2364100 0.0 100254
22:00+24ese2277100 0.1 100232
27 july, tue
tue2701:00+22nne1185100 0.1 100311
04:00+21e1191100 0.1 100211
07:00+22s0187100 0.0 100368
10:00+26wnw1269100 0.0 1004428
13:00+26nnw3370100 0.3 1003388
16:00+28n4466100 0.7 1003506
19:00+25nne597574 0.0 1002298
22:00+22ne4108273 0.0 1003225
28 july, wed
wed2801:00+20nne41093100 0.4 1003185
04:00+19nne3996100 0.4 1003168
07:00+20nne3691100 0.0 1003168
10:00+25nne337151 0.0 1002403
13:00+28n326014 0.0 1001669
16:00+29nnw32555 0.0 999703
19:00+28ne356614 0.0 999203
22:00+24e3681100 0.0 999100
29 july, thu
thu2901:00+22nne239119 0.0 99855
04:00+20ne2296100 0.0 99816
07:00+22nne118926 0.0 99862
10:00+25wnw1174100 0.0 998361
13:00+29wnw136273 0.0 997555
16:00+30nw1357100 1.0 995674
19:00+23s2398100 2.5 99548
22:00+22ssw51297100 3.9 996369